Jamestown, NY

12:42 AM EST on December 11, 2019 (GMT -0500)
Chautauqua County-Jamestown

Weather History for KJHW - October, 2019

Change the Weather History Date:

Wednesday, October 23, 2019

  Actual Average Record
Temperature  
Mean Temperature 46 °F -  
Max Temperature 52 °F 54 °F 80 °F (1979)
Min Temperature 39 °F 33 °F 21 °F (1974)
Degree Days  
Heating Degree Days 20    
Moisture  
Dew Point 34 °F    
Average Humidity 69    
Maximum Humidity 100    
Minimum Humidity 41    
Precipitation  
Precipitation 0.00 in - - ()
Sea Level Pressure  
Sea Level Pressure 29.99 in    
Wind  
Wind Speed 9 mph (SW)    
Max Wind Speed 21 mph    
Max Gust Speed 31 mph    
Visibility 10 miles    
Events      
Averages and records for this station are not official NWS values.
T = Trace of Precipitation, MM = Missing Value Source: NWS Daily Summary

Daily Weather History Graph

Daily Weather History Graph

Search for Another Location

Airport or City:

Astronomy

Oct. 23, 2019 Rise Set
Actual Time 7:38 AM EDT 6:23 PM EDT
Civil Twilight 7:10 AM EDT 6:51 PM EDT
Nautical Twilight 6:37 AM EDT 7:24 PM EDT
Astronomical Twilight 6:05 AM EDT 7:56 PM EDT
Moon 1:47 AM EDT (10/23) 4:19 PM EDT (10/23)
Length of Visible Light 11h 41m
Length of Day
10h 44m
Waning Crescent, 27% of the Moon is Illuminated
Oct 23
Waning Crescent
Oct 27
New
Nov 4
First Quarter
Nov 12
Full
Nov 19
Last Quarter

Hourly Weather History & Observations

Time (EDT) Temp. Windchill Dew Point Humidity Pressure Visibility Wind Dir Wind Speed Gust Speed Precip Events Conditions
12:56 AM 44.1 °F 40.1 °F 39.9 °F 85% 29.87 in 10.0 mi West 6.9 mph - N/A   Clear
1:56 AM 43.0 °F - 39.0 °F 86% 29.87 in 10.0 mi Calm Calm - N/A   Clear
2:27 AM 39.2 °F 35.0 °F 39.2 °F 100% 29.84 in 1.8 mi South 5.8 mph - N/A   Clear
2:34 AM 39.2 °F 34.2 °F 39.2 °F 100% 29.84 in 3.0 mi South 6.9 mph - N/A   Clear
2:56 AM 41.0 °F 36.4 °F 39.0 °F 93% 29.87 in 10.0 mi SSW 6.9 mph - N/A   Clear
3:56 AM 42.1 °F 36.1 °F 37.0 °F 82% 29.87 in 10.0 mi SW 10.4 mph - N/A   Clear
4:56 AM 42.1 °F 36.1 °F 37.0 °F 82% 29.89 in 10.0 mi SSW 10.4 mph - N/A   Scattered Clouds
5:11 AM 42.8 °F 37.5 °F 37.4 °F 81% 29.86 in 10.0 mi SSW 9.2 mph - N/A   Mostly Cloudy
5:31 AM 42.8 °F 37.5 °F 37.4 °F 81% 29.87 in 10.0 mi SSW 9.2 mph - N/A   Scattered Clouds
5:56 AM 42.1 °F 36.6 °F 37.0 °F 82% 29.91 in 10.0 mi SSW 9.2 mph - N/A   Scattered Clouds
6:56 AM 41.0 °F 35.2 °F 37.0 °F 86% 29.93 in 10.0 mi SSW 9.2 mph - N/A   Clear
7:56 AM 41.0 °F 34.7 °F 37.0 °F 86% 29.94 in 10.0 mi SSW 10.4 mph - N/A   Clear
8:56 AM 43.0 °F 36.8 °F 37.9 °F 82% 29.96 in 10.0 mi SW 11.5 mph - N/A   Clear
9:56 AM 45.0 °F 39.3 °F 39.0 °F 80% 29.97 in 10.0 mi SW 11.5 mph - N/A   Clear
10:56 AM 48.0 °F - 34.0 °F 58% 30.00 in 10.0 mi WSW 16.1 mph 25.3 mph N/A   Clear
11:56 AM 48.0 °F - 32.0 °F 54% 30.02 in 10.0 mi WSW 19.6 mph 31.1 mph N/A   Scattered Clouds
12:56 PM 48.0 °F - 30.9 °F 52% 30.03 in 10.0 mi West 20.7 mph 27.6 mph N/A   Mostly Cloudy
1:56 PM 51.1 °F - 33.1 °F 50% 30.02 in 10.0 mi WSW 19.6 mph 27.6 mph N/A   Mostly Cloudy
2:56 PM 51.1 °F - 28.9 °F 43% 30.03 in 10.0 mi SW 17.3 mph 25.3 mph N/A   Scattered Clouds
3:56 PM 52.0 °F - 28.9 °F 41% 30.06 in 10.0 mi WSW 19.6 mph 25.3 mph N/A   Partly Cloudy
4:56 PM 51.1 °F - 30.0 °F 44% 30.07 in 10.0 mi WSW 13.8 mph 23.0 mph N/A   Clear
5:56 PM 50.0 °F - 28.9 °F 44% 30.09 in 10.0 mi WSW 13.8 mph 23.0 mph N/A   Clear
6:56 PM 48.0 °F - 30.0 °F 50% 30.11 in 10.0 mi SSW 8.1 mph - N/A   Clear
7:56 PM 46.0 °F 43.1 °F 30.0 °F 54% 30.13 in 10.0 mi SSW 5.8 mph - N/A   Clear
8:56 PM 44.1 °F 40.1 °F 30.0 °F 58% 30.14 in 10.0 mi South 6.9 mph - N/A   Clear
9:56 PM 44.1 °F 40.1 °F 30.0 °F 58% 30.15 in 10.0 mi South 6.9 mph - N/A   Clear
10:56 PM 42.1 °F 37.7 °F 30.0 °F 62% 30.17 in 10.0 mi South 6.9 mph - N/A   Clear
11:56 PM 43.0 °F 38.8 °F 30.9 °F 62% 30.17 in 10.0 mi South 6.9 mph - N/A   Clear